Theta_e
330 329 327 322 328 327 328 327 323 324 327 327 327 331 332 332 335 338 335 336 337 336 337 338 339 336 334 333 332 328 333 334 333 333 331 330 330 330 329 327 327 328 328 329 327 328 327 325 326
330 329 325 318 327 329 328 323 328 324 329 331 330 333 335 335 334 335 336 336 336 336 337 338 337 336 334 333 330 329 330 333 333 332 332 331 330 330 328 327 327 327 328 328 326 327 326 326 326
329 327 324 323 323 328 329 325 324 326 327 326 333 331 334 335 333 335 336 335 336 338 338 338 337 336 334 332 329 330 329 331 331 332 330 331 330 329 328 326 327 327 327 327 327 327 325 325 324
328 324 321 326 327 324 325 325 325 328 325 324 329 333 331 333 333 336 337 335 336 338 338 338 337 335 334 332 328 329 328 331 331 331 329 330 330 329 328 327 327 327 327 326 326 326 324 323 321
326 321 327 328 327 323 322 324 326 328 325 326 329 331 334 333 335 336 337 335 335 337 338 338 336 335 334 330 328 327 327 331 332 329 329 329 328 328 327 327 327 327 327 327 327 326 323 323 323
326 322 329 331 331 327 324 326 325 325 324 324 329 332 333 333 334 336 337 335 335 336 337 337 336 335 334 330 329 327 325 329 330 329 329 329 327 326 327 327 326 327 327 327 326 323 322 322 322
327 327 330 331 331 328 326 324 327 325 324 324 326 329 331 332 335 336 337 335 335 335 337 337 336 335 334 331 329 327 325 324 329 328 327 328 327 326 325 325 326 326 326 326 324 320 321 321 322
323 326 332 331 333 329 324 325 322 324 325 322 327 326 326 332 335 336 336 335 335 335 337 337 336 335 333 332 330 328 326 323 327 328 327 325 326 326 324 321 325 325 326 325 321 317 318 320 321
321 330 331 332 330 330 323 324 320 321 325 323 322 324 327 332 335 336 336 335 335 336 337 339 336 335 334 333 331 329 327 325 324 327 327 326 324 325 324 322 321 322 324 324 321 318 316 316 317
324 328 330 327 326 328 326 324 322 323 326 326 326 328 330 332 335 335 335 335 335 338 337 338 337 335 334 333 332 330 328 325 324 325 327 326 325 324 323 322 322 323 323 321 320 317 317 316 315
323 327 324 326 325 325 327 325 324 322 325 324 325 325 330 330 333 334 334 335 335 336 337 338 336 335 334 333 332 331 330 327 325 324 323 323 323 324 323 322 321 322 323 322 319 317 316 315 315
327 325 324 326 326 325 327 326 327 321 323 320 321 324 330 330 330 332 334 335 335 335 334 337 337 336 334 333 332 331 331 329 327 326 324 322 320 320 321 321 319 320 321 321 321 318 316 315 315
329 325 325 325 325 324 324 327 327 326 323 321 323 323 325 329 330 331 333 333 334 335 335 335 336 336 335 333 332 331 332 331 329 327 326 324 323 321 318 318 317 317 318 319 320 320 319 317 317
319 325 325 323 325 324 326 324 324 324 322 323 322 323 322 327 329 330 330 332 332 333 334 335 335 336 335 334 332 331 331 331 331 329 327 326 325 323 321 320 317 316 317 319 319 319 318 317 316
321 323 321 320 322 323 322 323 323 321 322 324 323 322 321 321 324 329 331 331 332 332 332 333 334 335 335 334 333 332 330 330 330 329 328 327 326 325 324 321 321 321 320 321 321 321 319 316 316
323 323 324 319 320 321 322 321 318 317 321 322 321 321 320 319 320 322 323 326 328 330 331 332 332 333 333 334 334 333 332 331 331 330 328 327 327 327 325 324 322 322 323 323 322 322 320 317 316
319 313 321 319 317 319 322 321 318 315 319 321 320 319 318 315 315 317 319 319 319 320 321 326 330 332 332 332 333 334 333 332 331 331 330 328 327 327 326 326 324 323 323 324 323 323 322 321 320
316 321 317 316 316 318 320 323 318 316 317 318 317 315 314 313 314 316 316 317 318 319 319 320 323 327 329 331 332 332 333 333 332 331 331 330 329 328 327 326 326 325 324 324 324 323 323 322 322
310 316 316 315 316 319 319 319 319 316 314 314 314 312 313 313 314 314 313 315 315 317 317 318 320 323 328 329 330 330 330 331 331 331 331 330 330 330 328 327 326 325 325 324 324 324 324 323 323
315 314 315 316 316 317 316 317 315 314 314 315 316 314 312 310 310 311 314 315 314 315 317 317 318 320 325 328 329 329 329 329 331 331 332 331 330 330 329 328 327 325 325 325 324 324 323 322 322
319 318 315 313 315 314 314 312 314 312 313 310 311 311 310 310 311 311 311 313 315 315 316 315 315 316 319 325 328 328 328 328 328 328 329 329 329 328 328 328 327 326 325 325 325 324 324 322 321
317 316 314 316 315 313 310 307 306 307 309 312 311 311 311 311 310 310 311 311 311 313 315 317 317 315 318 325 328 328 327 327 327 327 328 328 328 328 328 327 326 326 326 325 325 325 324 322 322
314 316 317 315 316 317 315 317 311 313 313 313 312 310 309 309 309 309 308 309 310 313 317 317 314 316 321 326 328 328 328 328 327 328 327 327 327 328 328 327 326 325 324 324 324 323 323 322 321
312 314 315 315 318 317 312 315 309 310 313 312 314 312 310 309 309 305 305 306 307 314 320 321 321 323 325 327 328 328 328 328 327 328 328 328 328 328 328 327 327 326 325 325 324 323 322 322 321
314 313 311 316 319 315 310 314 311 308 309 310 311 310 308 308 304 303 303 303 303 304 308 317 321 323 327 328 328 328 328 328 328 328 329 329 328 328 328 328 328 327 327 326 325 323 322 322 320
316 314 310 310 311 312 310 315 312 309 309 308 307 307 308 305 303 302 301 300 301 300 300 301 303 305 309 316 319 324 326 327 327 328 328 328 328 328 328 327 327 327 327 327 327 324 323 322 321
315 317 310 312 309 311 311 310 312 311 311 311 310 307 308 303 301 300 299 298 298 297 297 297 298 298 299 300 301 301 302 304 305 310 313 312 315 316 319 323 326 327 327 327 327 326 326 325 322
313 312 316 315 313 311 313 313 313 312 311 309 309 308 305 301 299 298 297 296 296 295 295 294 295 295 296 296 296 297 297 297 297 298 298 298 299 300 301 302 307 316 323 325 326 326 325 324 324
315 316 313 312 312 312 310 308 308 311 310 310 308 306 302 300 298 296 294 293 293 293 292 292 291 292 293 293 294 294 294 294 295 294 295 295 295 296 296 297 298 300 303 314 322 324 324 324 323
313 314 314 315 315 314 313 312 306 307 308 307 306 301 299 297 294 293 292 291 290 290 291 290 289 289 289 290 291 291 292 292 292 292 292 292 293 294 294 295 296 296 297 298 302 311 321 322 322
Wind_Speed
27 19 7 4 4 4 1 1 0 3 1 1 2 2 3 1 2 1 2 13 17 21 20 19 17 13 11 11 10 13 15 14 12 13 14 15 16 16 16 16 16 15 13 14 15 15 15 14 14
24 12 5 2 4 3 2 2 2 3 3 5 4 2 2 1 0 2 11 10 20 21 21 20 17 14 11 8 9 14 14 14 12 12 13 15 15 16 16 16 16 15 14 13 13 14 15 16 12
13 8 3 4 3 3 3 3 3 2 4 1 2 1 4 1 1 9 5 19 22 21 20 19 18 16 11 6 8 13 13 12 10 12 11 13 14 14 15 15 16 15 14 13 12 13 14 14 12
10 6 3 4 3 2 2 3 4 3 0 2 2 2 1 2 3 10 13 21 22 21 20 19 18 15 11 7 9 12 13 13 12 10 8 12 13 13 15 16 16 14 14 12 12 12 13 9 10
6 3 4 4 1 3 3 3 5 3 0 1 1 1 0 1 4 11 18 22 22 21 20 19 17 15 11 10 10 10 13 14 12 9 9 8 10 11 12 14 14 13 13 12 11 10 11 8 9
4 2 4 2 1 2 2 4 4 2 1 1 2 4 2 3 7 12 19 20 20 20 20 18 17 15 11 10 10 10 12 17 13 10 10 8 7 7 10 12 12 11 11 10 10 10 9 8 7
4 3 3 4 1 1 2 4 3 3 3 2 2 2 2 3 7 14 18 18 18 18 20 19 18 16 12 11 10 10 11 16 16 11 10 10 7 5 8 11 11 10 10 9 9 9 8 7 6
3 3 3 2 3 3 2 3 0 3 2 1 2 2 2 4 13 15 18 16 16 17 18 19 18 17 15 13 11 11 11 13 16 12 13 10 10 9 7 10 12 10 8 9 9 9 9 8 6
2 3 2 3 5 2 2 3 0 1 3 1 3 1 2 6 17 18 17 15 16 17 19 19 19 19 17 15 14 13 12 12 16 13 13 13 13 11 9 7 8 10 11 10 9 9 9 8 7
4 3 7 3 3 3 1 2 3 2 1 2 2 1 2 12 17 18 15 17 18 19 21 21 21 21 19 18 16 16 15 14 15 16 16 15 14 14 13 11 9 9 8 9 9 9 9 9 8
3 5 4 3 4 3 2 1 1 4 2 5 4 2 3 10 13 15 16 16 21 21 22 24 23 22 21 21 19 19 18 17 16 16 16 17 17 16 14 13 13 12 12 11 12 11 11 10 10
4 4 5 2 4 3 2 2 2 5 5 2 4 2 5 9 14 17 19 23 20 20 20 23 25 23 23 22 22 21 21 20 19 18 18 17 17 18 17 16 13 14 14 12 13 12 12 12 12
4 5 5 4 3 1 1 4 4 5 6 3 2 2 4 7 14 18 19 20 20 24 25 24 24 25 24 24 24 24 24 24 22 21 20 20 19 18 18 17 16 15 14 14 14 14 14 15 14
2 4 1 2 3 3 4 5 6 6 7 7 5 7 6 7 14 15 17 22 24 26 27 26 26 27 27 27 27 27 27 26 25 24 23 22 21 19 19 18 17 16 16 15 15 16 17 17 17
2 3 1 3 3 4 4 10 8 9 4 7 7 7 7 9 10 16 22 24 26 27 26 28 29 28 30 31 30 29 29 28 28 27 26 25 24 23 21 20 19 17 16 16 17 18 19 20 20
4 3 3 3 7 5 7 16 4 7 7 10 9 9 7 8 13 18 20 23 24 27 29 28 29 30 32 34 34 32 32 31 31 29 27 27 26 26 25 24 24 21 19 20 20 19 20 21 21
2 3 5 4 8 4 7 10 4 2 7 9 8 8 7 8 11 18 20 22 26 22 23 28 29 32 33 34 36 36 35 34 34 32 30 27 28 27 28 29 28 25 24 23 24 23 22 23 24
6 4 4 6 3 3 5 19 4 1 5 8 8 8 7 8 13 26 28 25 25 25 23 25 27 28 31 33 34 35 37 37 36 35 34 30 29 28 29 30 31 28 28 28 27 26 26 26 25
6 5 5 3 3 4 9 15 16 8 6 10 12 10 13 14 22 26 30 27 26 24 26 25 25 27 27 29 29 27 32 36 37 38 36 34 32 30 30 31 32 31 31 32 30 28 27 28 26
3 3 4 4 5 6 6 13 15 9 9 13 16 13 13 10 14 22 26 25 22 22 20 19 22 25 28 31 32 26 22 31 39 38 38 37 35 33 32 32 33 32 31 31 31 29 25 24 23
11 14 4 3 2 2 4 13 10 9 16 7 10 13 9 14 15 9 16 19 18 19 21 22 25 27 28 31 29 26 21 20 20 28 32 35 35 34 34 34 34 34 32 34 34 32 30 23 21
13 8 6 3 4 4 2 10 5 3 4 5 8 8 13 13 7 6 14 18 17 18 19 21 24 24 28 29 28 28 23 22 21 21 26 25 25 27 31 33 35 36 35 35 36 35 35 29 24
5 8 13 6 5 3 4 4 4 1 4 4 6 8 7 7 7 6 6 8 11 11 13 13 14 17 20 24 27 28 26 23 18 15 15 18 19 20 23 26 29 33 34 37 36 34 34 30 28
7 6 5 3 4 8 9 10 15 7 7 5 5 5 5 5 2 5 8 11 16 14 10 5 2 4 9 16 19 23 24 23 17 15 17 18 18 20 21 22 24 28 31 33 35 34 33 34 30
8 8 3 5 5 10 9 7 24 3 1 7 7 8 5 5 6 5 6 13 19 25 24 21 17 15 6 4 11 16 19 18 18 18 18 18 18 19 21 20 21 24 27 29 31 31 32 34 31
16 13 6 8 6 4 5 11 11 6 13 12 7 8 7 7 6 6 7 14 19 24 27 30 31 31 26 21 16 9 4 1 6 10 12 14 16 17 18 20 20 20 22 25 26 29 30 32 32
9 17 7 3 2 2 5 7 8 8 7 6 7 6 8 7 7 8 12 17 19 25 28 29 31 33 32 30 28 27 24 21 17 14 10 8 7 7 8 10 16 19 22 24 26 28 27 24 34
8 11 9 9 6 7 5 5 9 2 8 7 7 7 7 7 9 9 12 16 20 24 26 30 31 30 29 28 27 25 24 22 21 19 18 16 14 13 12 11 9 11 14 19 23 26 28 28 32
7 9 8 5 7 7 6 8 7 11 12 8 8 9 10 10 10 9 12 16 20 23 25 27 28 27 27 25 23 22 22 21 20 21 20 19 18 18 17 17 16 15 12 13 19 24 26 29 29
20 17 15 7 9 10 2 6 1 5 6 7 7 9 9 11 10 8 12 14 18 20 20 21 23 25 23 21 20 21 20 20 21 22 22 22 23 22 21 21 20 18 18 17 17 18 20 24 27
Wind_Direction
345 347 360 42 56 67 346 290 79 149 177 190 102 137 192 96 164 202 159 168 161 162 159 160 158 155 151 147 147 143 136 135 135 126 124 121 124 128 120 120 115 116 113 108 106 94 93 97 92
344 350 39 75 84 70 281 254 219 195 159 136 105 101 52 116 60 97 131 165 161 162 160 161 163 158 155 153 147 145 145 144 143 133 128 126 128 126 126 127 125 124 121 119 111 100 97 92 99
347 6 70 85 102 153 182 201 159 150 154 196 93 17 143 135 162 167 157 160 161 164 165 165 167 165 167 172 158 153 152 145 148 148 136 131 130 133 129 134 130 130 131 130 121 115 108 103 104
351 23 50 76 110 231 238 159 158 140 159 187 142 72 282 178 175 177 162 165 166 167 170 173 174 174 177 177 164 160 159 157 154 162 150 141 138 138 141 141 140 138 136 135 131 131 125 112 110
30 58 57 77 324 285 270 145 155 155 135 104 182 173 193 62 126 159 166 168 171 172 177 178 180 181 184 180 167 163 165 162 157 163 163 168 148 146 145 146 144 143 142 142 139 138 142 124 105
30 85 62 142 245 300 289 150 140 173 138 191 121 145 194 158 160 168 169 174 180 177 182 185 186 191 193 185 178 172 168 172 163 167 172 175 162 154 158 151 150 146 146 146 147 151 149 138 121
99 63 148 151 176 342 229 159 161 178 154 234 146 98 152 196 172 170 174 178 185 187 187 190 191 196 200 196 189 182 179 179 176 176 186 191 184 180 168 164 160 156 156 161 166 167 166 163 153
101 90 107 224 179 220 193 184 304 170 203 74 159 192 154 177 170 169 174 182 189 193 196 197 198 200 202 203 202 195 191 185 188 189 192 197 199 192 182 176 173 169 175 181 181 179 181 186 188
124 66 152 212 159 235 146 176 101 279 131 208 199 203 48 152 165 166 172 185 193 200 203 206 206 209 209 208 206 207 204 198 198 202 203 206 196 195 207 210 185 191 194 199 198 194 198 202 209
85 115 209 209 191 180 213 195 175 161 100 253 281 189 103 162 171 175 181 190 198 204 206 210 213 215 215 216 213 212 213 211 207 209 214 223 219 217 225 225 211 204 218 220 214 209 214 220 225
168 176 204 230 238 182 181 226 152 134 228 223 214 186 148 175 188 200 203 207 208 207 209 214 216 218 220 220 219 219 219 218 219 220 222 226 229 230 229 230 226 224 224 225 225 224 227 231 237
148 230 177 205 186 164 209 153 222 187 216 249 166 147 167 185 204 213 216 221 222 220 223 223 221 223 224 227 225 225 224 225 225 226 228 230 230 231 236 237 236 234 238 240 239 240 242 244 246
190 203 201 243 172 177 62 248 235 244 237 211 230 228 219 224 228 230 234 240 238 237 236 237 234 231 228 228 230 231 231 230 233 231 231 232 235 238 240 242 240 240 242 249 252 257 258 258 258
214 193 257 287 239 223 198 250 142 258 270 249 232 255 257 230 237 245 243 245 244 248 249 246 242 242 239 235 234 233 234 237 236 235 237 236 237 240 243 245 244 245 245 254 262 268 270 270 269
141 155 29 255 235 250 162 280 215 210 197 239 248 243 239 250 261 241 253 256 260 258 257 253 250 245 242 243 241 238 238 239 242 241 238 238 240 241 243 247 246 249 252 256 262 269 271 271 273
142 128 152 245 177 250 123 257 164 195 209 243 239 254 256 257 255 267 266 261 262 267 263 260 255 251 246 244 244 243 243 240 243 245 242 239 240 241 243 244 246 251 255 256 257 262 270 271 272
336 193 188 285 211 151 187 268 246 199 199 241 254 251 255 272 268 262 265 271 271 270 268 264 259 253 252 248 244 244 245 244 245 246 247 243 242 242 244 247 249 251 254 255 257 259 259 265 270
187 211 219 195 213 210 214 254 238 200 166 222 251 268 269 255 258 274 280 276 270 265 267 266 262 258 254 250 245 243 243 246 247 248 248 246 244 245 245 249 251 253 254 255 255 256 262 264 270
167 177 186 213 229 185 232 248 251 240 236 242 244 242 253 263 274 273 278 272 271 266 263 254 253 255 248 238 230 229 233 240 245 248 251 251 249 246 246 249 253 252 253 256 258 260 260 265 265
174 180 220 270 230 188 253 255 264 218 230 231 241 241 241 246 267 271 274 273 271 270 265 259 256 258 251 243 236 225 231 240 247 250 252 251 251 250 248 248 252 254 253 256 259 258 258 263 261
220 224 168 202 327 247 304 271 226 241 234 230 243 247 251 241 255 269 283 283 283 276 274 272 269 258 253 244 234 230 231 240 238 242 249 252 253 255 255 254 252 255 255 255 258 257 253 248 261
219 193 169 164 66 244 19 280 251 273 220 209 239 232 245 254 260 258 271 286 295 288 279 272 264 256 246 237 223 220 218 226 238 244 253 257 259 260 260 259 258 257 257 256 257 259 257 248 243
217 154 182 156 185 11 217 297 259 207 273 235 252 244 247 255 249 279 325 345 342 317 290 276 262 248 241 235 227 224 223 234 240 249 255 260 265 264 264 264 263 263 260 264 260 256 256 244 243
142 88 67 138 160 246 220 200 263 216 197 215 222 246 257 252 66 71 56 46 37 34 30 19 334 262 236 231 230 231 237 235 236 245 253 260 268 272 271 269 268 267 265 265 265 263 254 256 246
159 140 146 207 207 233 156 179 250 275 111 182 204 241 273 100 103 68 43 46 44 49 57 68 74 61 70 213 230 235 243 249 252 259 264 266 267 269 279 277 275 275 274 274 272 265 263 259 247
190 184 163 193 207 203 143 226 239 208 223 241 235 262 161 129 103 85 56 59 57 54 57 64 69 68 75 81 77 80 70 314 273 278 282 283 282 286 292 287 283 281 282 280 275 270 270 266 259
190 210 175 81 53 82 215 285 295 198 223 220 220 174 160 135 112 94 66 62 59 59 58 62 65 68 70 72 73 73 72 70 67 68 65 47 26 346 324 312 302 292 284 279 277 274 273 273 268
171 162 189 216 204 227 244 258 239 209 240 231 188 178 153 119 102 87 72 65 64 65 66 67 67 62 64 65 65 64 64 63 61 57 50 44 33 21 8 356 333 312 297 289 279 273 272 266 263
163 193 205 175 202 201 233 244 203 227 227 209 190 175 140 122 112 97 79 68 67 64 59 58 56 54 54 52 49 48 47 45 43 39 31 23 16 11 5 359 349 338 326 300 286 275 278 262 269
208 201 189 194 203 232 224 255 250 273 219 182 152 124 115 110 104 92 83 72 60 53 48 46 42 42 40 39 38 34 31 27 22 15 7 1 355 353 350 346 341 335 330 324 310 296 283 269 268